Wind_Speed
30 29 30 33 31 28 24 20 19 15 11 9 7 3 4 6 4 1 8 5 3 7 10 7 6 4 2 7 11 9 8 9 12 14 15 14 14 11 9 8 9 7 5
30 28 28 31 32 27 26 23 19 19 17 13 9 8 8 8 8 7 9 11 13 13 13 7 8 2 4 4 5 5 8 13 14 14 15 16 14 10 8 7 7 7 8
29 28 27 28 31 33 29 28 26 23 23 20 16 15 15 15 15 14 16 16 17 15 11 10 6 7 8 8 6 6 9 11 12 12 11 13 15 11 5 7 7 6 6
25 27 27 27 26 28 32 31 29 28 27 26 24 22 20 20 20 21 21 19 18 14 13 14 14 13 10 7 9 9 10 10 10 12 12 13 15 15 14 13 13 11 11
22 25 25 26 27 26 27 30 33 32 31 31 30 30 29 28 26 24 21 20 20 21 20 18 15 13 13 12 12 14 14 14 15 16 17 17 17 18 17 17 15 13 12
21 23 23 24 25 27 25 25 26 29 31 33 33 33 32 31 30 29 27 26 24 22 21 20 18 18 18 19 20 20 19 20 19 19 18 19 19 19 18 16 15 14 14
20 20 22 22 24 25 27 28 29 29 30 30 29 30 30 30 29 29 28 27 26 25 24 25 24 25 24 23 23 22 21 22 22 21 21 21 21 21 21 19 17 16 15
19 18 21 23 24 23 24 25 26 28 29 30 31 31 30 31 30 30 30 28 30 30 28 29 27 25 24 23 23 22 21 22 22 20 20 20 20 20 19 19 18 18 17
17 18 19 20 21 24 25 25 25 26 27 28 31 32 32 32 33 33 33 31 29 28 27 26 25 24 24 23 21 20 21 20 19 21 22 21 21 21 21 21 21 20 20
14 17 18 19 21 23 25 26 27 28 28 31 32 33 33 33 32 31 30 28 27 25 25 24 24 24 23 22 23 23 23 22 22 23 23 23 23 23 23 22 22 22 21
13 17 19 19 21 23 24 25 26 27 28 28 28 29 29 29 29 28 28 28 27 27 27 28 28 28 28 28 28 28 27 26 26 25 25 27 27 28 26 25 22 22 24
13 13 15 18 20 21 23 24 24 25 25 25 25 26 26 26 26 27 30 30 29 28 28 27 27 27 28 27 26 26 25 26 27 25 25 26 27 28 30 31 29 25 25
10 12 14 18 19 20 21 21 21 22 22 22 24 24 24 26 27 29 30 29 29 28 28 27 27 27 26 26 27 27 27 27 26 26 28 29 30 33 35 35 33 28 26
9 9 13 15 17 17 17 17 18 19 20 20 20 22 25 27 27 26 27 28 28 29 29 28 28 27 26 26 27 28 28 28 28 29 30 31 32 34 35 35 33 28 26
6 9 12 13 15 13 13 14 15 16 17 17 18 21 22 22 23 23 25 25 26 27 27 28 29 29 28 27 27 28 28 29 30 31 32 33 34 35 36 36 34 28 27
6 9 12 12 13 11 10 11 13 13 14 14 17 19 18 18 19 20 20 22 23 23 26 26 27 28 30 30 30 29 29 29 30 30 30 32 35 36 38 38 35 30 28
6 9 10 10 11 9 9 9 10 10 11 13 15 14 13 13 14 14 16 17 18 20 21 22 24 25 26 28 30 32 32 31 29 30 31 32 34 37 39 39 35 33 32
6 10 11 11 10 8 7 7 7 8 8 10 12 10 7 8 9 9 10 12 14 16 17 19 21 23 24 26 28 29 31 32 32 31 31 33 34 36 39 40 38 34 34
8 10 11 11 11 10 8 7 7 7 7 9 11 8 3 3 4 5 6 9 11 13 15 17 18 20 22 24 26 27 29 31 32 33 33 33 34 35 37 40 40 37 35
8 10 10 12 12 11 9 9 8 8 9 10 11 7 2 1 2 3 6 8 11 13 14 16 18 20 21 23 25 27 28 31 32 34 35 35 36 36 37 39 40 39 37
9 10 12 14 14 12 11 11 10 10 11 13 12 7 4 3 4 5 7 9 11 13 15 16 18 20 21 23 25 27 29 31 32 33 35 37 37 37 38 39 40 40 39
10 12 13 15 16 15 14 13 12 12 13 15 14 10 8 7 8 9 10 11 13 15 17 18 19 21 23 24 26 28 30 32 33 34 36 37 39 40 39 40 40 40 39
12 14 15 16 17 17 17 16 15 14 16 18 16 14 12 11 11 11 11 11 13 15 17 19 22 23 25 26 28 30 32 33 34 35 37 38 40 40 41 42 40 40 40
13 15 18 16 18 20 20 19 19 18 18 19 20 18 16 14 14 13 13 14 16 18 20 22 24 26 27 29 31 32 34 35 36 37 38 39 42 42 41 44 40 40 40
13 14 16 20 20 20 22 23 22 22 21 22 22 22 21 19 19 19 19 19 20 21 23 26 27 28 30 32 33 35 36 38 38 39 40 41 43 44 42 45 39 40 40
17 15 15 19 22 22 24 24 24 25 25 24 25 25 25 25 24 25 25 24 24 26 27 29 30 30 32 33 35 37 38 39 40 41 41 43 44 44 44 45 39 40 39
Wind_Direction
2 4 7 10 10 16 21 22 23 22 19 26 44 91 174 190 190 257 292 244 231 173 161 170 187 182 220 308 321 328 343 347 349 347 335 331 330 331 335 342 342 338 353
8 13 15 19 24 27 29 29 31 34 39 45 61 88 101 108 117 124 99 121 128 132 133 137 135 136 339 350 6 11 359 352 348 339 333 331 319 311 330 331 335 350 349
9 14 19 20 27 34 37 40 43 45 49 60 73 83 94 105 116 117 115 117 122 116 115 99 83 74 58 53 37 6 358 1 10 11 13 9 33 30 345 307 308 328 350
14 20 26 29 30 39 44 46 50 54 59 64 70 77 87 94 99 107 110 107 102 93 94 86 77 71 64 48 40 36 40 39 41 48 47 45 48 50 49 45 42 35 30
18 20 23 25 34 42 45 51 54 58 64 69 73 77 81 85 90 95 95 92 89 83 82 80 77 71 67 62 64 64 63 62 59 56 54 56 58 61 61 58 59 58 56
20 22 28 33 40 46 48 53 58 61 64 68 71 75 77 80 82 84 86 86 86 85 85 85 82 81 79 75 73 73 71 70 67 66 60 55 52 55 59 57 50 46 43
23 29 41 47 51 54 56 60 62 65 68 70 72 75 78 80 83 85 86 88 88 88 89 89 84 81 78 76 71 65 59 54 49 44 42 41 37 32 31 30 27 22 21
30 43 53 52 57 59 63 64 66 70 74 77 79 78 81 83 85 87 87 86 88 88 87 83 81 77 72 64 59 55 52 45 42 37 37 36 36 31 25 27 19 13 13
45 51 53 51 58 63 65 68 72 76 80 82 84 85 83 83 84 83 83 83 81 79 77 74 71 66 62 59 59 55 52 45 41 40 36 34 33 30 23 18 13 10 8
48 40 48 59 65 70 73 73 75 77 79 81 82 82 83 83 81 79 78 76 73 71 70 70 69 68 66 64 61 59 55 52 47 45 41 36 32 28 20 12 4 358 353
48 45 60 67 75 77 78 81 83 83 83 82 81 82 82 81 81 81 78 74 72 71 72 73 73 69 65 62 61 59 57 54 49 44 40 35 28 24 15 8 5 1 356
35 58 76 83 82 86 89 90 89 87 86 85 83 82 81 81 81 79 79 81 81 78 71 68 65 62 58 56 54 52 47 43 42 40 34 30 26 22 18 13 7 5 4
54 71 87 93 97 97 95 93 92 89 86 85 83 82 84 85 85 87 86 80 74 69 64 62 60 58 57 54 51 48 45 42 38 35 31 27 22 19 15 12 7 4 6
72 90 103 107 105 101 100 99 93 91 89 86 88 91 94 95 92 83 77 74 70 66 61 57 57 56 53 50 46 43 41 38 34 30 26 22 18 15 13 11 9 7 4
94 116 117 117 112 110 110 105 100 97 93 95 99 104 103 95 85 80 75 70 66 62 60 58 55 52 49 45 41 38 34 31 29 26 22 18 15 12 9 7 7 6 6
116 137 141 136 127 124 123 119 113 106 103 106 111 114 107 92 82 78 73 67 61 57 55 52 50 48 46 43 38 33 28 24 23 21 19 16 13 11 9 6 5 5 2
150 150 150 149 143 144 141 135 123 117 115 121 127 124 112 92 84 76 68 60 53 49 47 44 41 40 38 35 33 31 27 23 18 15 14 12 11 9 7 6 3 2 0
178 164 170 170 162 163 162 155 146 136 136 140 147 144 120 92 87 73 59 50 43 38 34 31 29 27 27 25 23 22 21 20 16 11 7 6 6 5 5 3 2 358 357
194 182 184 186 183 178 185 191 177 169 168 168 166 165 147 94 81 63 42 30 24 22 18 16 15 14 15 15 14 12 12 12 12 10 5 2 360 0 1 2 0 357 355
214 197 200 204 202 198 198 202 203 196 189 184 179 185 208 285 355 359 1 357 356 357 358 359 1 1 2 3 3 3 3 4 5 5 4 0 357 355 356 357 356 355 352
236 222 220 216 216 211 212 216 214 210 204 193 193 214 231 261 303 319 323 325 329 335 339 342 347 349 351 353 354 355 355 356 357 358 358 358 355 352 352 352 352 352 350
240 236 236 229 227 222 219 222 221 219 214 208 208 220 242 266 284 295 302 311 318 322 327 332 335 338 341 343 345 346 348 349 350 351 352 351 353 350 348 347 347 346 347
263 249 244 242 233 233 229 228 228 228 224 222 224 230 244 266 280 292 300 308 314 319 326 328 329 333 334 336 337 339 341 342 344 345 346 346 347 348 345 343 341 341 343
274 259 249 243 243 239 237 235 233 230 232 233 235 241 251 265 272 280 288 297 305 311 315 318 321 325 327 328 330 331 334 336 338 340 341 341 341 344 342 341 339 338 338
278 274 263 259 249 242 242 243 242 242 239 236 239 242 252 260 265 271 278 287 296 304 311 314 316 317 320 322 324 327 329 332 333 335 336 337 337 339 338 338 336 334 334
269 266 269 264 256 254 247 240 243 247 248 249 250 250 256 263 267 272 279 285 292 301 308 310 312 314 315 318 321 324 326 328 330 331 332 332 334 336 335 334 333 331 332
Height
5718 5709 5701 5691 5682 5674 5668 5663 5659 5655 5652 5650 5649 5649 5651 5653 5655 5656 5656 5657 5660 5663 5668 5672 5675 5677 5679 5680 5679 5676 5675 5674 5673 5670 5667 5663 5660 5657 5654 5651 5648 5646 5644
5720 5712 5704 5696 5687 5679 5672 5666 5662 5658 5654 5652 5651 5650 5651 5652 5654 5657 5657 5659 5661 5665 5669 5672 5675 5678 5679 5678 5677 5676 5676 5674 5671 5668 5665 5661 5658 5655 5653 5651 5648 5646 5644
5722 5715 5708 5701 5693 5684 5677 5672 5667 5662 5659 5656 5654 5654 5654 5655 5657 5659 5660 5663 5666 5669 5672 5675 5676 5677 5677 5677 5678 5677 5676 5673 5670 5667 5665 5661 5657 5654 5652 5650 5648 5646 5645
5725 5719 5713 5706 5699 5692 5685 5679 5674 5669 5665 5662 5661 5660 5660 5660 5662 5663 5666 5669 5672 5674 5675 5676 5678 5679 5679 5680 5679 5677 5675 5673 5671 5668 5665 5662 5659 5657 5654 5652 5650 5649 5648
5729 5723 5717 5711 5705 5698 5694 5688 5683 5679 5675 5672 5669 5668 5667 5667 5668 5670 5671 5673 5675 5676 5678 5680 5681 5681 5681 5681 5680 5679 5678 5676 5674 5671 5669 5667 5664 5662 5659 5656 5655 5653 5651
5732 5727 5722 5716 5710 5705 5700 5696 5692 5689 5685 5682 5679 5677 5676 5676 5676 5677 5678 5679 5681 5682 5684 5685 5685 5685 5685 5685 5684 5683 5682 5680 5677 5675 5674 5671 5668 5665 5663 5661 5658 5656 5654
5735 5730 5726 5721 5716 5712 5708 5704 5700 5697 5694 5691 5689 5687 5686 5685 5685 5685 5686 5686 5687 5688 5689 5689 5690 5690 5690 5689 5688 5687 5685 5683 5681 5679 5676 5673 5671 5668 5665 5662 5660 5658 5655
5738 5734 5730 5726 5722 5719 5715 5712 5709 5706 5703 5700 5698 5697 5696 5695 5694 5693 5693 5695 5695 5694 5696 5695 5695 5695 5694 5693 5692 5691 5689 5687 5684 5682 5680 5676 5673 5670 5667 5664 5661 5657 5655
5741 5738 5734 5731 5728 5724 5721 5719 5717 5714 5711 5710 5706 5704 5704 5704 5703 5703 5703 5703 5704 5703 5702 5701 5701 5700 5699 5697 5696 5695 5693 5691 5689 5686 5682 5679 5676 5672 5669 5666 5662 5659 5655
5745 5742 5738 5735 5733 5730 5727 5725 5723 5722 5721 5718 5717 5715 5713 5712 5712 5712 5712 5712 5712 5711 5709 5708 5707 5706 5705 5703 5701 5699 5696 5694 5692 5689 5686 5683 5679 5675 5671 5667 5663 5659 5655
5748 5745 5742 5740 5738 5736 5734 5732 5730 5729 5728 5727 5726 5724 5722 5722 5720 5719 5719 5718 5718 5718 5717 5715 5714 5712 5710 5707 5705 5703 5701 5698 5695 5692 5689 5685 5681 5676 5672 5668 5664 5658 5652
5751 5749 5747 5744 5743 5742 5740 5739 5738 5737 5736 5735 5734 5732 5731 5730 5729 5727 5726 5725 5726 5725 5723 5721 5719 5717 5715 5712 5710 5708 5705 5702 5698 5696 5693 5689 5684 5680 5675 5668 5662 5656 5651
5754 5752 5751 5749 5748 5748 5747 5746 5745 5744 5743 5742 5740 5739 5738 5736 5736 5735 5734 5733 5731 5730 5729 5727 5724 5722 5720 5718 5715 5712 5709 5706 5702 5699 5695 5691 5686 5680 5674 5667 5660 5654 5650
5756 5755 5754 5754 5753 5753 5752 5751 5750 5749 5749 5748 5747 5746 5745 5744 5743 5742 5741 5739 5738 5736 5734 5732 5729 5727 5724 5722 5719 5716 5712 5709 5705 5701 5696 5692 5687 5681 5675 5669 5662 5656 5650
5758 5758 5758 5758 5757 5757 5756 5756 5755 5754 5754 5753 5752 5751 5751 5750 5749 5748 5746 5745 5743 5741 5739 5737 5734 5731 5729 5726 5723 5719 5715 5711 5707 5702 5698 5693 5687 5681 5675 5669 5662 5656 5650
5760 5760 5759 5760 5759 5760 5760 5759 5758 5758 5758 5757 5756 5756 5756 5755 5754 5753 5751 5750 5748 5746 5744 5741 5739 5736 5733 5729 5726 5722 5718 5713 5709 5704 5700 5694 5688 5682 5675 5668 5661 5655 5650
5760 5761 5762 5762 5762 5762 5762 5762 5761 5761 5761 5760 5760 5759 5759 5758 5758 5757 5755 5753 5752 5750 5747 5745 5743 5739 5736 5732 5728 5724 5720 5715 5710 5705 5700 5695 5689 5682 5675 5669 5661 5654 5648
5761 5761 5761 5762 5763 5764 5764 5763 5763 5763 5762 5762 5762 5762 5762 5761 5760 5759 5758 5756 5754 5752 5750 5747 5745 5742 5738 5734 5730 5726 5721 5716 5711 5706 5700 5695 5688 5682 5675 5668 5661 5654 5647
5761 5761 5761 5762 5763 5763 5764 5764 5763 5763 5763 5763 5763 5763 5763 5762 5762 5760 5759 5757 5755 5753 5751 5748 5745 5742 5739 5735 5731 5727 5722 5717 5712 5706 5700 5694 5688 5681 5674 5667 5660 5652 5645
5760 5760 5760 5761 5761 5762 5762 5763 5763 5763 5763 5763 5763 5764 5764 5763 5762 5760 5759 5757 5756 5753 5751 5749 5745 5742 5738 5735 5730 5726 5721 5716 5710 5705 5699 5692 5686 5679 5672 5665 5658 5651 5643
5759 5759 5759 5759 5760 5760 5761 5762 5762 5762 5761 5762 5763 5763 5762 5762 5760 5759 5758 5756 5754 5752 5750 5747 5744 5741 5737 5733 5729 5724 5719 5714 5709 5703 5696 5690 5683 5676 5669 5663 5655 5648 5640
5756 5756 5757 5757 5757 5758 5758 5759 5759 5759 5760 5760 5760 5761 5760 5760 5758 5757 5756 5754 5752 5750 5748 5745 5742 5738 5735 5731 5726 5722 5717 5711 5706 5700 5693 5687 5680 5673 5666 5659 5651 5644 5636
5753 5754 5754 5754 5754 5755 5755 5755 5756 5757 5757 5757 5758 5758 5757 5757 5756 5755 5753 5751 5749 5747 5745 5742 5738 5736 5732 5728 5723 5719 5713 5708 5702 5696 5690 5683 5676 5669 5662 5654 5647 5639 5632
5749 5749 5750 5749 5750 5750 5751 5751 5752 5752 5753 5754 5754 5754 5754 5754 5753 5751 5750 5748 5746 5744 5741 5739 5735 5731 5728 5723 5719 5714 5709 5704 5698 5691 5685 5678 5670 5664 5657 5649 5641 5634 5627
5745 5744 5745 5745 5745 5745 5746 5747 5747 5748 5748 5748 5749 5749 5749 5749 5748 5747 5745 5744 5742 5740 5737 5733 5730 5727 5722 5718 5714 5709 5704 5698 5692 5686 5679 5672 5665 5658 5651 5643 5636 5629 5622
5739 5738 5738 5739 5739 5739 5739 5740 5741 5742 5742 5743 5743 5743 5743 5743 5743 5741 5740 5738 5737 5734 5732 5728 5724 5721 5717 5712 5708 5703 5697 5692 5686 5680 5673 5666 5659 5652 5644 5637 5630 5623 5616